Date String (YYYY-MM-DD hh:mm:ss) UTC,Instrument flags,absolute air pressure of the measurement (hPa),sample flow rate (lpm),inlet stack bypass flow (lpm),air temperature of the measurement (°C),ambient temperature measured by the external sensor (°C),aerosol sample conditioner tube jacket temperature (°C),OPC LED temperature (°C),internal box temperature (°C),relative humidity of the measurement (%),span deviation,mass concentration of particles derived from Lorenz-Mie calculation of OPC scattering (μg/m³),mass concentration of particles derived from Lorenz-Mie calculation of OPC scattering (μg/m³),mass concentration of particles derived from Lorenz-Mie calculation of OPC scattering (μg/m³)
DateTimeUTC,F1_M11,P_M11,Q1_M11,Q2_M11,T1_M11,T2_M11,T3_M11,T4_M11,T5_M11,U1_M11,ZSPAN_M11,X0_M11,X2_M11,X1_M11
2023-12-03 21:00:00,SystemResetWarning,0824.7,5.00,000.00,018.7,017.6,000.0,027.2,020.0,17.6,0000.0,0003.24,0001.38,0000.83
2023-12-03 21:01:00,SystemResetWarning,0824.7,4.99,000.00,018.7,017.6,000.0,027.2,020.0,17.5,0000.0,0003.56,0001.40,0000.83
2023-12-03 21:02:00,SystemResetWarning,0824.6,5.00,000.00,018.7,017.6,000.0,027.2,020.0,17.5,0000.0,0004.56,0001.41,0000.82
2023-12-03 21:03:00,SystemResetWarning,0824.7,5.00,000.00,018.7,017.6,000.0,027.2,020.0,17.5,0000.0,0004.53,0001.39,0000.83
2023-12-03 21:04:00,SystemResetWarning,0824.7,5.00,000.00,018.7,017.6,000.0,027.2,020.0,17.6,0000.0,0004.33,0001.35,0000.83
2023-12-03 21:05:00,SystemResetWarning,0824.7,5.01,000.00,018.7,017.6,000.0,027.2,020.0,17.7,0000.0,0004.55,0001.36,0000.82
2023-12-03 21:06:00,SystemResetWarning,0824.7,5.00,000.00,018.7,017.6,000.0,027.2,020.0,18.0,0000.0,0004.80,0001.36,0000.82
2023-12-03 21:07:00,SystemResetWarning,0824.7,4.99,000.00,018.7,017.6,000.0,027.2,020.0,18.3,0000.0,0004.75,0001.31,0000.79
2023-12-03 21:08:00,SystemResetWarning,0824.7,5.00,000.00,018.7,017.6,000.0,027.2,020.0,18.3,0000.0,0004.76,0001.31,0000.78
2023-12-03 21:09:00,SystemResetWarning,0824.7,5.00,000.00,018.7,017.6,000.0,027.2,020.0,18.2,0000.0,0005.36,0001.33,0000.77
2023-12-03 21:10:00,SystemResetWarning,0824.8,5.00,000.00,018.7,017.6,000.0,027.2,020.0,18.0,0000.0,0005.33,0001.30,0000.76
2023-12-03 21:11:00,SystemResetWarning,0824.8,4.99,000.00,018.7,017.6,000.0,027.2,020.0,17.5,0000.0,0005.04,0001.28,0000.76
2023-12-03 21:12:00,SystemResetWarning,0824.8,5.00,000.00,018.7,017.6,000.0,027.2,020.0,17.8,0000.0,0005.05,0001.29,0000.76
2023-12-03 21:13:00,SystemResetWarning,0824.8,5.01,000.00,018.7,017.6,000.0,027.2,020.0,17.5,0000.0,0004.09,0001.27,0000.77
2023-12-03 21:14:00,SystemResetWarning,0824.8,5.01,000.00,018.7,017.6,000.0,027.2,020.0,17.4,0000.0,0003.91,0001.28,0000.79
2023-12-03 21:15:00,SystemResetWarning,0824.7,5.00,000.00,018.7,017.6,000.0,027.2,020.0,17.3,0000.0,0003.95,0001.31,0000.80
2023-12-03 21:16:00,SystemResetWarning,0824.8,5.00,000.00,018.7,017.6,000.0,027.2,020.0,17.3,0000.0,0003.94,0001.37,0000.84
2023-12-03 21:17:00,SystemResetWarning,0824.9,5.00,000.00,018.7,017.6,000.0,027.2,020.0,17.5,0000.0,0004.11,0001.37,0000.88
2023-12-03 21:18:00,SystemResetWarning,0824.9,5.00,000.00,018.7,017.6,000.0,027.2,020.0,17.7,0000.0,0004.09,0001.37,0000.91
2023-12-03 21:19:00,SystemResetWarning,0824.9,5.00,000.00,018.7,017.6,000.0,027.2,020.0,17.5,0000.0,0004.24,0001.43,0000.94
2023-12-03 21:20:00,SystemResetWarning,0824.9,5.00,000.00,018.7,017.6,000.0,027.2,020.0,17.9,0000.0,0003.68,0001.41,0000.97
2023-12-03 21:21:00,SystemResetWarning,0824.9,5.00,000.00,018.7,017.6,000.0,027.2,020.0,17.9,0000.0,0003.57,0001.46,0001.00
2023-12-03 21:22:00,SystemResetWarning,0824.8,4.99,000.00,018.7,017.6,000.0,027.2,020.0,18.0,0000.0,0003.61,0001.49,0001.01
2023-12-03 21:23:00,SystemResetWarning,0824.9,5.00,000.00,018.7,017.6,000.0,027.2,020.0,18.1,0000.0,0003.49,0001.48,0001.02
2023-12-03 21:24:00,SystemResetWarning,0824.9,5.00,000.00,018.7,017.6,000.0,027.2,020.0,18.0,0000.0,0003.44,0001.52,0001.04
2023-12-03 21:25:00,SystemResetWarning,0824.9,5.01,000.00,018.7,017.6,000.0,027.2,020.0,18.1,0000.0,0003.58,0001.58,0001.06
2023-12-03 21:26:00,SystemResetWarning,0824.9,5.01,000.00,018.7,017.6,000.0,027.2,020.0,18.1,0000.0,0003.65,0001.62,0001.08
2023-12-03 21:27:00,SystemResetWarning,0824.9,5.01,000.00,018.7,017.6,000.0,027.2,020.0,17.8,0000.0,0004.10,0001.61,0001.09
2023-12-03 21:28:00,SystemResetWarning,0824.8,5.00,000.00,018.7,017.6,000.0,027.2,020.0,17.8,0000.0,0003.91,0001.64,0001.10
2023-12-03 21:29:00,SystemResetWarning,0824.9,5.00,000.00,018.7,017.5,000.0,027.2,020.0,17.9,0000.0,0004.02,0001.73,0001.14
2023-12-03 21:30:00,SystemResetWarning,0824.9,4.99,000.00,018.7,017.5,000.0,027.2,020.0,17.9,0000.0,0003.94,0001.76,0001.17
2023-12-03 21:31:00,SystemResetWarning,0824.9,4.99,000.00,018.6,017.5,000.0,027.2,020.0,18.0,0000.0,0004.01,0001.79,0001.20
2023-12-03 21:32:00,SystemResetWarning,0824.9,5.01,000.00,018.6,017.5,000.0,027.2,020.0,18.2,0000.0,0004.07,0001.82,0001.23
2023-12-03 21:33:00,SystemResetWarning,0824.9,5.00,000.00,018.6,017.5,000.0,027.2,020.0,18.3,0000.0,0004.22,0001.88,0001.28
2023-12-03 21:34:00,SystemResetWarning,0824.9,5.00,000.00,018.6,017.5,000.0,027.2,020.0,18.4,0000.0,0004.63,0001.94,0001.32
2023-12-03 21:35:00,SystemResetWarning,0824.9,5.00,000.00,018.6,017.5,000.0,027.2,020.0,18.5,0000.0,0005.05,0001.96,0001.35
2023-12-03 21:36:00,SystemResetWarning,0824.8,5.00,000.00,018.6,017.5,000.0,027.2,020.0,18.6,0000.0,0005.08,0002.00,0001.38
2023-12-03 21:37:00,SystemResetWarning,0824.8,4.99,000.00,018.6,017.5,000.0,027.2,020.0,18.7,0000.0,0005.15,0002.04,0001.41
2023-12-03 21:38:00,SystemResetWarning,0824.8,4.99,000.00,018.6,017.5,000.0,027.2,020.0,18.8,0000.0,0005.13,0002.06,0001.43
2023-12-03 21:39:00,SystemResetWarning,0824.8,4.99,000.00,018.6,017.5,000.0,027.2,020.0,18.7,0000.0,0005.98,0002.08,0001.45
2023-12-03 21:40:00,SystemResetWarning,0824.9,5.00,000.00,018.6,017.5,000.0,027.2,020.0,18.7,0000.0,0006.10,0002.09,0001.47
2023-12-03 21:41:00,SystemResetWarning,0825.0,5.02,000.00,018.6,017.5,000.0,027.2,020.0,18.8,0000.0,0005.89,0002.05,0001.47
2023-12-03 21:42:00,SystemResetWarning,0825.1,5.00,000.00,018.6,017.5,000.0,027.2,020.0,18.9,0000.0,0005.84,0002.04,0001.47
2023-12-03 21:43:00,SystemResetWarning,0825.1,4.99,000.00,018.6,017.5,000.0,027.2,020.0,18.8,0000.0,0005.78,0002.03,0001.46
2023-12-03 21:44:00,SystemResetWarning,0825.1,4.99,000.00,018.7,017.5,000.0,027.2,020.0,18.9,0000.0,0007.34,0002.03,0001.46
2023-12-03 21:45:00,SystemResetWarning,0825.1,5.01,000.00,018.7,017.5,000.0,027.2,020.0,18.9,0000.0,0008.02,0002.01,0001.46
2023-12-03 21:46:00,SystemResetWarning,0825.1,5.01,000.00,018.7,017.5,000.0,027.2,020.0,18.8,0000.0,0007.77,0002.00,0001.47
2023-12-03 21:47:00,SystemResetWarning,0825.1,5.01,000.00,018.7,017.5,000.0,027.2,020.0,18.8,0000.0,0007.73,0002.05,0001.49
2023-12-03 21:48:00,SystemResetWarning,0825.0,5.00,000.00,018.7,017.5,000.0,027.1,020.0,18.7,0000.0,0007.74,0002.04,0001.50
2023-12-03 21:49:00,SystemResetWarning,0825.0,4.99,000.00,018.7,017.5,000.0,027.2,020.0,18.6,0000.0,0007.74,0002.03,0001.50
2023-12-03 21:50:00,SystemResetWarning,0825.0,5.00,000.00,018.7,017.5,000.0,027.1,020.0,18.5,0000.0,0007.42,0002.06,0001.50
2023-12-03 21:51:00,SystemResetWarning,0824.9,4.99,000.00,018.7,017.5,000.0,027.1,020.0,18.6,0000.0,0007.32,0002.02,0001.49
2023-12-03 21:52:00,SystemResetWarning,0825.0,5.00,000.00,018.7,017.5,000.0,027.1,020.0,18.7,0000.0,0007.39,0002.06,0001.49
2023-12-03 21:53:00,SystemResetWarning,0825.1,5.01,000.00,018.7,017.5,000.0,027.2,020.0,18.8,0000.0,0007.48,0002.09,0001.49
2023-12-03 21:54:00,SystemResetWarning,0825.1,5.01,000.00,018.7,017.5,000.0,027.2,020.0,18.8,0000.0,0007.50,0002.12,0001.50
2023-12-03 21:55:00,SystemResetWarning,0825.1,5.00,000.00,018.7,017.5,000.0,027.2,020.0,18.8,0000.0,0005.67,0002.15,0001.51
2023-12-03 21:56:00,SystemResetWarning,0825.1,5.00,000.00,018.7,017.5,000.0,027.1,020.0,18.9,0000.0,0004.68,0002.15,0001.51
2023-12-03 21:57:00,SystemResetWarning,0825.0,4.99,000.00,018.7,017.5,000.0,027.1,020.0,18.9,0000.0,0004.60,0002.17,0001.52
2023-12-03 21:58:00,SystemResetWarning,0824.9,5.00,000.00,018.7,017.5,000.0,027.1,020.0,18.9,0000.0,0004.63,0002.19,0001.52
2023-12-03 21:59:00,SystemResetWarning,0824.9,5.00,000.00,018.7,017.5,000.0,027.1,020.0,18.8,0000.0,0004.64,0002.17,0001.53
